GW4996 Weather Reports


time (UTC)temp
C
wind
direction
speed
KPH
gust
KPH
rain 1hr
cm
rain 24hr
cm
rain mn
cm
humidity
%
barometer
mb
20260504221007 25 36 4.8 20.9 0.00 0.53 0.30 85 1013.4
20260504220511 25 83 8.0 20.9 0.00 0.53 0.30 85 1013.2
20260504220037 25 28 9.7 17.7 0.00 0.53 0.30 84 1013.2
20260504215510 25 99 6.4 17.7 0.00 0.53 0.30 85 1013.2
20260504215007 25 63 8.0 17.7 0.00 0.53 0.30 84 1013.2
20260504214527 25 46 8.0 20.9 0.00 0.53 0.30 84 1013.3
20260504214014 25 38 8.0 20.9 0.00 0.53 0.30 84 1013.2
20260504213507 25 17 9.7 22.5 0.00 0.53 0.30 84 1013.2
20260504213034 25 40 11.3 22.5 0.00 0.53 0.30 83 1013.4
20260504212508 25 51 14.5 24.1 0.00 0.53 0.30 82 1013.4
20260504212006 25 17 11.3 25.7 0.00 0.53 0.30 82 1013.5
20260504211526 25 49 14.5 25.7 0.00 0.53 0.30 81 1013.5
20260504211007 25 62 8.0 24.1 0.00 0.53 0.30 81 1013.5
20260504210508 25 29 11.3 24.1 0.00 0.53 0.30 80 1013.5
20260504210003 25 55 11.3 25.7 0.00 0.53 0.30 80 1013.4
20260504205506 25 80 11.3 25.7 0.00 0.53 0.30 81 1013.5
20260504205005 25 31 12.9 22.5 0.00 0.53 0.30 80 1013.5
20260504204509 25 72 12.9 22.5 0.00 0.53 0.30 80 1013.5
20260504204003 26 81 11.3 25.7 0.00 0.53 0.30 81 1013.5
20260504203513 26 23 9.7 25.7 0.00 0.53 0.30 81 1013.4
20260504203011 26 64 16.1 22.5 0.00 0.53 0.30 81 1013.6
20260504202506 25 63 6.4 20.9 0.00 0.53 0.30 81 1013.6
20260504202007 25 18 11.3 20.9 0.00 0.53 0.30 80 1013.8
20260504201515 25 71 9.7 19.3 0.00 0.53 0.30 80 1013.8
20260504201005 25 67 8.0 19.3 0.00 0.53 0.30 79 1013.9
20260504200507 26 63 11.3 25.7 0.00 0.53 0.30 79 1013.8
20260504200022 25 69 11.3 25.7 0.00 0.53 0.30 79 1013.9
20260504195507 25 65 14.5 27.4 0.00 0.53 0.30 78 1013.9
20260504195007 26 47 11.3 27.4 0.00 0.53 0.30 79 1013.9
20260504194506 25 119 11.3 24.1 0.00 0.53 0.30 79 1013.8
20260504194004 25 79 12.9 22.5 0.00 0.53 0.30 79 1014.0
20260504193504 25 99 12.9 22.5 0.00 0.53 0.30 80 1014.2
20260504193016 25 57 11.3 24.1 0.00 0.53 0.30 80 1014.2
20260504192504 25 30 9.7 25.7 0.00 0.53 0.30 82 1014.2
20260504192007 25 115 12.9 29.0 0.00 0.53 0.30 81 1014.3
20260504191515 25 63 11.3 29.0 0.00 0.53 0.30 83 1014.2
20260504191007 25 63 16.1 25.7 0.00 0.53 0.30 83 1014.2
20260504190506 25 76 11.3 25.7 0.00 0.53 0.30 82 1014.3
20260504190019 25 14 14.5 25.7 0.00 0.53 0.30 83 1014.5
20260504185508 25 101 14.5 27.4 0.00 0.53 0.30 83 1014.6
20260504185015 25 55 14.5 29.0 0.00 0.53 0.30 84 1014.5
20260504184527 25 71 14.5 29.0 0.00 0.53 0.30 83 1014.6
20260504184007 26 74 14.5 25.7 0.00 0.53 0.30 82 1014.6
20260504183509 26 115 12.9 24.1 0.00 0.53 0.30 83 1014.7
20260504183008 25 62 11.3 25.7 0.03 0.53 0.30 85 1014.7
20260504182504 25 74 16.1 25.7 0.03 0.53 0.30 85 1014.7
20260504182003 25 39 16.1 27.4 0.03 0.53 0.30 86 1014.7
20260504181518 24 44 12.9 27.4 0.03 0.53 0.30 87 1015.0
20260504181009 24 59 12.9 24.1 0.03 0.53 0.30 89 1015.0
20260504180508 23 22 11.3 25.7 0.03 0.53 0.30 90 1014.9
20260504180016 23 36 14.5 25.7 0.03 0.53 0.30 89 1015.1
20260504175506 23 28 11.3 20.9 0.03 0.53 0.30 90 1015.1
20260504175006 23 35 8.0 19.3 0.03 0.53 0.30 90 1015.2
20260504174520 23 22 4.8 24.1 0.03 0.53 0.30 90 1015.4
20260504174008 23 22 12.9 29.0 0.03 0.53 0.30 89 1015.4
20260504173506 23 20 11.3 29.0 0.05 0.53 0.30 88 1015.4
20260504173023 24 44 16.1 29.0 0.15 0.51 0.28 86 1015.3
20260504172508 25 29 16.1 27.4 0.18 0.51 0.28 84 1015.2
20260504172010 25 28 9.7 19.3 0.18 0.51 0.28 84 1015.1
20260504171511 25 104 9.7 19.3 0.18 0.51 0.28 85 1015.2
20260504171004 25 60 8.0 17.7 0.18 0.51 0.28 86 1015.1
20260504170505 25 84 8.0 17.7 0.18 0.51 0.28 88 1015.2
20260504151006 26 42 9.7 24.1 0.00 0.33 0.10 81 1015.3
20260504150511 26 28 4.8 16.1 0.00 0.33 0.10 79 1015.3
20260504141007 25 38 3.2 14.5 0.00 0.33 0.10 84 1015.2
20260504140509 25 24 4.8 12.9 0.00 0.33 0.10 84 1015.1
20260504130513 23 343 1.6 8.0 0.00 0.33 0.10 92 1014.5
20260504110507 22 220 1.6 8.0 0.03 1.80 0.10 95 1013.6
20260504100507 22 292 0.0 11.3 0.00 1.78 0.08 95 1013.5
20260504081534 22 292 1.6 4.8 0.08 1.78 0.08 94 1012.6
20260504081011 22 292 1.6 3.2 0.08 1.78 0.08 94 1012.6
20260504080506 22 292 0.0 1.6 0.08 1.78 0.08 94 1012.3
20260504050509 23 96 0.0 0.0 0.00 1.70 0.00 93 1015.0
20260504045507 23 96 0.0 0.0 0.00 1.70 0.00 93 1015.1
20260504045010 23 96 0.0 0.0 0.00 1.70 0.00 93 1015.1
20260504044528 23 96 0.0 0.0 0.00 1.70 0.00 93 1015.0
20260504044010 23 96 0.0 0.0 0.00 1.70 0.00 93 1014.7
20260504043510 23 96 0.0 0.0 0.00 1.70 0.00 93 1014.6
20260504043026 23 96 0.0 0.0 0.00 1.70 0.00 93 1014.6
20260504042509 23 96 0.0 0.0 0.00 1.70 0.00 93 1014.6
20260504042009 23 96 0.0 0.0 0.00 1.70 0.00 93 1014.5
20260504041524 23 96 0.0 0.0 0.00 1.70 0.00 93 1014.5
20260504041008 23 96 0.0 0.0 0.00 1.70 0.00 94 1014.6
20260504040509 23 96 0.0 1.6 0.00 1.70 0.00 93 1014.8
20260504040027 23 96 0.0 3.2 0.00 1.70 0.00 93 1014.9
20260504035513 23 96 0.0 3.2 0.00 1.70 1.70 93 1014.9
20260504035008 23 96 0.0 0.0 0.00 1.70 1.70 93 1014.9
20260504034533 23 96 0.0 0.0 0.00 1.70 1.70 93 1014.9
20260504034009 23 96 0.0 0.0 0.00 1.70 1.70 93 1015.0
20260504033511 23 96 0.0 0.0 0.00 1.70 1.70 93 1015.0
20260504033045 23 96 0.0 0.0 0.00 1.70 1.70 93 1015.0
20260504032509 23 96 0.0 0.0 0.00 1.70 1.70 93 1015.1
20260504032011 23 96 0.0 0.0 0.00 1.70 1.70 93 1015.1
20260504031532 23 96 0.0 0.0 0.00 1.70 1.70 93 1015.1
20260504031010 23 96 0.0 0.0 0.00 1.70 1.70 93 1015.1
20260504030503 23 96 0.0 0.0 0.00 1.70 1.70 93 1015.1
20260504030005 23 96 0.0 0.0 0.00 1.70 1.70 93 1015.1
20260504025503 23 96 0.0 0.0 0.00 1.70 1.70 93 1015.2
20260504025003 23 96 0.0 0.0 0.00 1.70 1.70 93 1015.2
20260504024513 23 96 0.0 3.2 0.00 1.70 1.70 93 1015.1
20260504024005 23 96 0.0 3.2 0.00 1.70 1.70 93 1014.9
20260504023502 23 96 0.0 3.2 0.00 1.70 1.70 93 1015.0
20260504023006 23 96 0.0 3.2 0.00 1.70 1.70 93 1014.9
20260504022503 23 96 0.0 4.8 0.00 1.70 1.70 93 1014.9
20260504022007 23 96 0.0 4.8 0.00 1.70 1.70 93 1014.9
20260504021504 23 96 0.0 4.8 0.00 1.70 1.70 93 1014.8
20260504021003 23 96 0.0 6.4 0.00 1.70 1.70 93 1014.8
20260504020503 23 96 0.0 6.4 0.00 1.70 1.70 93 1014.8
20260504020011 23 96 0.0 3.2 0.00 1.70 1.70 93 1014.7
20260504015503 23 96 0.0 3.2 0.00 1.70 1.70 93 1014.8
20260504015003 23 96 0.0 3.2 0.00 1.70 1.70 93 1014.8
20260504014506 23 96 0.0 4.8 0.00 1.70 1.70 93 1014.7
20260504014007 23 96 0.0 4.8 0.00 1.70 1.70 93 1014.6
20260504013502 23 96 0.0 3.2 0.00 1.70 1.70 93 1014.7
20260504013003 23 96 0.0 4.8 0.00 1.70 1.70 93 1014.7
20260504012503 23 96 1.6 4.8 0.00 1.70 1.70 93 1014.7
20260504012003 23 96 1.6 6.4 0.00 1.70 1.70 93 1014.7
20260504011504 23 96 3.2 9.7 0.00 1.70 1.70 93 1014.7
20260504011003 23 96 3.2 9.7 0.00 1.70 1.70 93 1014.7
20260504010502 23 96 1.6 6.4 0.00 1.70 1.70 93 1014.7
20260504010004 23 96 1.6 4.8 0.00 1.70 1.70 92 1014.7
20260504005504 23 96 1.6 4.8 0.00 1.70 1.70 92 1014.9
20260504005002 23 96 0.0 4.8 0.00 1.70 1.70 92 1014.8
20260504004515 23 96 1.6 4.8 0.03 1.70 1.70 92 1014.7
20260504004003 23 96 0.0 4.8 0.23 1.70 1.70 92 1014.6
20260504003503 23 96 1.6 6.4 0.23 1.70 1.70 92 1014.5
20260504003004 23 96 1.6 6.4 0.23 1.70 1.70 92 1014.4
20260504002504 23 96 0.0 6.4 0.23 1.70 1.70 91 1014.5
20260504002002 23 96 1.6 9.7 0.23 1.70 1.70 91 1014.6
20260504001507 23 96 3.2 9.7 0.23 1.70 1.70 91 1014.6
20260504001007 23 104 0.0 6.4 0.23 1.70 1.70 90 1014.5
20260504000502 23 5 1.6 6.4 0.23 1.70 1.70 90 1014.4
20260504000008 23 10 1.6 8.0 0.23 1.70 1.70 89 1014.4
20260503235503 23 10 1.6 11.3 0.23 1.70 1.70 88 1014.3
20260503235003 24 14 4.8 14.5 0.23 1.70 1.70 87 1014.2
20260503234508 25 339 1.6 14.5 0.20 1.68 1.68 86 1014.2
20260503234003 25 19 4.8 14.5 0.00 1.47 1.47 84 1014.1
20260503233502 25 44 3.2 9.7 0.00 1.47 1.47 84 1014.0
20260503233008 25 53 0.0 14.5 0.00 1.47 1.47 84 1013.8
20260503232502 25 53 4.8 16.1 0.00 1.47 1.47 84 1013.8
20260503232004 25 38 6.4 16.1 0.00 1.47 1.47 84 1014.0
20260503231509 25 23 6.4 14.5 0.00 1.47 1.47 83 1014.0
20260503231007 25 22 3.2 12.9 0.00 1.47 1.47 84 1013.9
20260503230504 25 23 4.8 11.3 0.00 1.47 1.47 83 1013.8
20260503230012 26 5 1.6 8.0 0.00 1.47 1.47 83 1013.8
20260503225503 26 9 1.6 8.0 0.00 1.47 1.47 83 1013.6
20260503225003 26 9 1.6 4.8 0.00 1.47 1.47 83 1013.6
20260503224512 25 9 1.6 11.3 0.00 1.47 1.47 83 1013.7
20260503224008 25 9 1.6 11.3 0.00 1.47 1.47 84 1013.8
20260503223506 25 5 1.6 6.4 0.00 1.47 1.47 83 1013.8
20260503223012 25 5 0.0 6.4 0.00 1.47 1.47 84 1013.8
20260503222502 25 5 1.6 6.4 0.00 1.47 1.47 83 1013.7
20260503222005 26 5 1.6 8.0 0.00 1.47 1.47 83 1013.9
20260503221510 26 5 1.6 8.0 0.00 1.47 1.47 82 1013.9